Mason City, IA

6:08 AM CDT on March 28, 2017 (GMT -0500)
Mason City Municipal

Weather History for KMCW - November, 2012

Change the Weather History Date:

Monday, November 26, 2012

  Actual Average Record
Temperature  
Mean Temperature 17 °F 28 °F  
Max Temperature 25 °F 36 °F 65 °F (1998)
Min Temperature 8 °F 19 °F -16 °F (1977)
Degree Days  
Heating Degree Days 48 38  
Month to date heating degree days 691 786  
Since 1 July heating degree days 1457 1524  
Cooling Degree Days 0 0  
Month to date cooling degree days 0 0  
Year to date cooling degree days 899 616  
Moisture  
Dew Point 6 °F    
Average Humidity 64    
Maximum Humidity 84    
Minimum Humidity 44    
Precipitation  
Precipitation 0.00 in 0.06 in 1.72 in (1896)
Month to date precipitation 0.45 1.67  
Year to date precipitation 18.93 33.75  
Snow  
Snow 0.00 in 0.20 in 4.00 in (1952)
Month to date snowfall T 3.3  
Since 1 July snowfall T 3.7  
Since 1 September snowfall T 3.7  
Snow Depth 0.00 in    
Sea Level Pressure  
Sea Level Pressure 30.38 in    
Wind  
Wind Speed 11 mph (NW)    
Max Wind Speed 22 mph    
Max Gust Speed 26 mph    
Visibility 10 miles    
Events      
T = Trace of Precipitation, MM = Missing Value Source: NWS Daily Summary

Daily Weather History Graph

Daily Weather History Graph

Search for Another Location

Airport or City:

Trip Planner

Search our weather history database for the weather conditions in past years. The results will help you decide how hot, cold, wet, or windy it might be!

Date:

Astronomy

Nov. 26, 2012 Rise Set
Actual Time 7:20 AM CST 4:41 PM CST
Civil Twilight 6:48 AM CST 5:12 PM CST
Nautical Twilight 6:13 AM CST 5:47 PM CST
Astronomical Twilight 5:39 AM CST 6:21 PM CST
Moon 3:35 PM CST (11/26) 5:29 AM CST (11/26)
Length of Visible Light 10h 23m
Length of Day
9h 20m
Waxing Gibbous, 97% of the Moon is Illuminated
Nov 26
Waxing Gibbous
Nov 28
Full
Dec 6
Last Quarter
Dec 13
New
Dec 19
First Quarter

Hourly Weather History & Observations

Time (CST) Temp. Windchill Dew Point Humidity Pressure Visibility Wind Dir Wind Speed Gust Speed Precip Events Conditions
12:53 AM 25.0 °F 14.8 °F 18.0 °F 75% 30.20 in 10.0 mi NNW 10.4 mph - N/A   Mostly Cloudy
1:53 AM 25.0 °F 14.8 °F 12.9 °F 60% 30.23 in 10.0 mi NNW 10.4 mph - N/A   Mostly Cloudy
2:53 AM 24.1 °F 14.4 °F 10.9 °F 57% 30.25 in 10.0 mi NNW 9.2 mph - N/A   Clear
3:53 AM 23.0 °F 13.1 °F 10.0 °F 58% 30.25 in 10.0 mi NNW 9.2 mph - N/A   Clear
4:44 AM 21.2 °F 11.7 °F 10.4 °F 63% 30.24 in 10.0 mi NNW 8.1 mph - N/A   Mostly Cloudy
4:53 AM 21.9 °F 11.0 °F 10.0 °F 60% 30.27 in 10.0 mi NNW 10.4 mph - N/A   Mostly Cloudy
5:53 AM 21.9 °F 10.4 °F 10.9 °F 63% 30.29 in 10.0 mi NNW 11.5 mph - N/A   Overcast
6:53 AM 19.9 °F 5.7 °F 7.0 °F 57% 30.32 in 10.0 mi NNW 16.1 mph - N/A   Overcast
7:53 AM 18.0 °F 3.6 °F 6.1 °F 60% 30.36 in 10.0 mi NNW 15.0 mph - N/A   Scattered Clouds
8:53 AM 17.1 °F 2.0 °F 6.1 °F 62% 30.40 in 10.0 mi NW 16.1 mph 25.3 mph N/A   Clear
9:53 AM 17.1 °F 1.5 °F 3.9 °F 56% 30.43 in 10.0 mi NNW 17.3 mph - N/A   Clear
10:53 AM 18.0 °F 4.8 °F 6.1 °F 60% 30.43 in 10.0 mi NNW 12.7 mph - N/A   Clear
11:53 AM 21.0 °F 7.1 °F 6.1 °F 53% 30.42 in 10.0 mi NNW 16.1 mph - N/A   Clear
12:53 PM 21.9 °F 7.8 °F 3.9 °F 46% 30.43 in 10.0 mi NW 17.3 mph - N/A   Clear
1:53 PM 23.0 °F 11.1 °F 3.9 °F 44% 30.42 in 10.0 mi NNW 12.7 mph - N/A   Clear
2:53 PM 23.0 °F 10.1 °F 3.9 °F 44% 30.41 in 10.0 mi NW 15.0 mph - N/A   Clear
3:53 PM 21.9 °F 9.8 °F 3.9 °F 46% 30.43 in 10.0 mi NNW 12.7 mph - N/A   Clear
4:53 PM 18.0 °F 6.9 °F 3.9 °F 54% 30.43 in 10.0 mi NW 9.2 mph - N/A   Clear
5:53 PM 14.0 °F 3.9 °F 3.0 °F 62% 30.46 in 10.0 mi NW 6.9 mph - N/A   Clear
6:53 PM 12.9 °F 0.7 °F 3.9 °F 67% 30.46 in 10.0 mi NW 9.2 mph - N/A   Clear
7:53 PM 10.9 °F 0.2 °F 1.9 °F 67% 30.47 in 10.0 mi NW 6.9 mph - N/A   Clear
8:53 PM 12.0 °F 1.5 °F 3.0 °F 67% 30.48 in 10.0 mi West 6.9 mph - N/A   Clear
9:53 PM 10.9 °F 2.9 °F 3.0 °F 70% 30.47 in 10.0 mi West 4.6 mph - N/A   Clear
10:53 PM 10.0 °F - 3.0 °F 73% 30.46 in 10.0 mi Calm Calm - N/A   Clear
11:53 PM 9.0 °F 0.6 °F 3.0 °F 77% 30.45 in 10.0 mi SSW 4.6 mph - N/A   Clear